Cando, ND

1:06 AM CST on February 13, 2016 (GMT -0600)
Cando

Weather History for K9D7 - September, 2012

Change the Weather History Date:

Monday, September 17, 2012

  Actual Average (KDVL) Record (KDVL)
Temperature  
Mean Temperature 44 °F -  
Max Temperature 55 °F 67 °F 91 °F (1989)
Min Temperature 32 °F 46 °F 26 °F (1959)
Degree Days  
Heating Degree Days 22    
Moisture  
Dew Point 34 °F    
Average Humidity 74    
Maximum Humidity 100    
Minimum Humidity 36    
Precipitation  
Precipitation 0.00 in - - ()
Sea Level Pressure  
Sea Level Pressure 30.12 in    
Wind  
Wind Speed 7 mph (NNW)    
Max Wind Speed 18 mph    
Max Gust Speed 25 mph    
Visibility 10 miles    
Events      
Averages and records for this station are not official NWS values.
T = Trace of Precipitation, MM = Missing Value Source: NWS Daily Summary

Daily Weather History Graph

Daily Weather History Graph

Search for Another Location

Airport or City:

Trip Planner

Search our weather history database for the weather conditions in past years. The results will help you decide how hot, cold, wet, or windy it might be!

Date:

Astronomy

Sep. 17, 2012 Rise Set
Actual Time 7:17 AM CDT 7:44 PM CDT
Civil Twilight 6:45 AM CDT 8:15 PM CDT
Nautical Twilight 6:08 AM CDT 8:52 PM CDT
Astronomical Twilight 5:29 AM CDT 9:31 PM CDT
Moon 9:22 AM CDT (9/17) 8:10 PM CDT (9/17)
Length of Visible Light 13h 29m
Length of Day
12h 26m
Waxing Crescent, 3% of the Moon is Illuminated
Sep 17
Waxing Crescent
Sep 22
First Quarter
Sep 29
Full
Oct 8
Last Quarter
Oct 15
New

Hourly Weather History & Observations

Time (CDT) Temp. Windchill Dew Point Humidity Pressure Visibility Wind Dir Wind Speed Gust Speed Precip Events Conditions
12:15 AM 46.4 °F 43.5 °F 44.6 °F 93% 30.12 in 10.0 mi North 5.8 mph - N/A   Overcast
12:35 AM 44.6 °F 42.2 °F 44.6 °F 100% 30.12 in 10.0 mi NW 4.6 mph - N/A   Mostly Cloudy
12:55 AM 42.8 °F 38.6 °F 41.0 °F 93% 30.12 in 10.0 mi NNW 6.9 mph - N/A   Overcast
1:15 AM 41.0 °F 38.0 °F 41.0 °F 100% 30.12 in 10.0 mi NNW 4.6 mph - N/A   Scattered Clouds
1:35 AM 39.2 °F 33.6 °F 39.2 °F 100% 30.12 in 10.0 mi NNE 8.1 mph - N/A   Clear
1:55 AM 39.2 °F 35.9 °F 39.2 °F 100% 30.13 in 10.0 mi NE 4.6 mph - N/A   Clear
2:15 AM 39.2 °F 35.9 °F 39.2 °F 100% 30.13 in 10.0 mi NW 4.6 mph - N/A   Mostly Cloudy
2:35 AM 39.2 °F 35.9 °F 39.2 °F 100% 30.13 in 10.0 mi North 4.6 mph - N/A   Overcast
2:55 AM 37.4 °F 32.8 °F 37.4 °F 100% 30.12 in 10.0 mi North 5.8 mph - N/A   Mostly Cloudy
3:15 AM 39.2 °F 35.9 °F 39.2 °F 100% 30.13 in 10.0 mi NW 4.6 mph - N/A   Overcast
3:35 AM 37.4 °F 33.8 °F 37.4 °F 100% 30.13 in 10.0 mi NW 4.6 mph - N/A   Overcast
3:55 AM 39.2 °F 35.9 °F 39.2 °F 100% 30.12 in 10.0 mi North 4.6 mph - N/A   Overcast
4:15 AM 41.0 °F 38.0 °F 39.2 °F 93% 30.12 in 10.0 mi North 4.6 mph - N/A   Overcast
4:55 AM 39.2 °F 37.0 °F 39.2 °F 100% 30.12 in 10.0 mi NNW 3.5 mph - N/A   Mostly Cloudy
5:15 AM 35.6 °F - 35.6 °F 100% 30.12 in 10.0 mi Calm Calm - N/A   Mostly Cloudy
5:35 AM 35.6 °F 31.7 °F 35.6 °F 100% 30.12 in 10.0 mi West 4.6 mph - N/A   Scattered Clouds
5:55 AM 33.8 °F 28.6 °F 33.8 °F 100% 30.13 in 10.0 mi WSW 5.8 mph - N/A   Scattered Clouds
6:15 AM 32.0 °F 27.5 °F 32.0 °F 100% 30.12 in 7.0 mi West 4.6 mph - N/A   Clear
6:35 AM 32.0 °F 27.5 °F 32.0 °F 100% 30.13 in 2.0 mi NNW 4.6 mph - N/A   Clear
7:15 AM 32.0 °F 27.5 °F 32.0 °F 100% 30.14 in - NNW 4.6 mph - N/A   Unknown
7:35 AM 32.0 °F 28.7 °F 32.0 °F 100% 30.14 in - WNW 3.5 mph - N/A   Unknown
7:55 AM 32.0 °F - 32.0 °F 100% 30.14 in - Calm Calm - N/A   Unknown
8:15 AM 35.6 °F - 35.6 °F 100% 30.14 in - Calm Calm - N/A   Unknown
8:35 AM 37.4 °F 34.9 °F 37.4 °F 100% 30.14 in 9.0 mi North 3.5 mph - N/A   Mostly Cloudy
8:55 AM 41.0 °F 38.0 °F 39.2 °F 93% 30.14 in 10.0 mi NNW 4.6 mph - N/A   Mostly Cloudy
9:15 AM 41.0 °F 37.1 °F 39.2 °F 93% 30.15 in 10.0 mi North 5.8 mph - N/A   Overcast
9:35 AM 41.0 °F 34.3 °F 41.0 °F 100% 30.16 in 10.0 mi North 11.5 mph - N/A   Overcast
9:55 AM 42.8 °F 37.0 °F 39.2 °F 87% 30.16 in 10.0 mi North 10.4 mph - N/A   Overcast
10:35 AM 44.6 °F 39.2 °F 39.2 °F 81% 30.17 in 10.0 mi NNW 10.4 mph - N/A   Overcast
10:55 AM 44.6 °F 38.8 °F 39.2 °F 81% 30.17 in 10.0 mi North 11.5 mph - N/A   Overcast
11:15 AM 44.6 °F 39.7 °F 39.2 °F 81% 30.16 in 10.0 mi North 9.2 mph - N/A   Scattered Clouds
11:35 AM 48.2 °F - 39.2 °F 71% 30.16 in 10.0 mi NNE 8.1 mph - N/A   Scattered Clouds
11:55 AM 50.0 °F - 39.2 °F 66% 30.16 in 10.0 mi NNW 10.4 mph - N/A   Scattered Clouds
12:15 PM 50.0 °F - 39.2 °F 66% 30.15 in 10.0 mi NNE 11.5 mph 16.1 mph N/A   Scattered Clouds
12:35 PM 50.0 °F - 39.2 °F 66% 30.15 in 10.0 mi North 11.5 mph - N/A   Mostly Cloudy
12:55 PM 50.0 °F - 37.4 °F 62% 30.14 in 10.0 mi North 8.1 mph 17.3 mph N/A   Overcast
1:15 PM 50.0 °F - 35.6 °F 58% 30.14 in 10.0 mi NNW 12.7 mph 18.4 mph N/A   Overcast
1:35 PM 51.8 °F - 35.6 °F 54% 30.13 in 10.0 mi North 13.8 mph 18.4 mph N/A   Mostly Cloudy
1:55 PM 53.6 °F - 33.8 °F 47% 30.12 in 10.0 mi NNW 18.4 mph 25.3 mph N/A   Scattered Clouds
2:15 PM 53.6 °F - 32.0 °F 44% 30.12 in 10.0 mi NNW 11.5 mph - N/A   Scattered Clouds
2:35 PM 53.6 °F - 32.0 °F 44% 30.11 in 10.0 mi NNE 13.8 mph 20.7 mph N/A   Mostly Cloudy
2:55 PM 50.0 °F - 35.6 °F 58% 30.11 in 10.0 mi North 11.5 mph - N/A   Mostly Cloudy
3:15 PM 55.4 °F - 35.6 °F 47% 30.11 in 10.0 mi North 13.8 mph 17.3 mph N/A   Mostly Cloudy
3:35 PM 53.6 °F - 33.8 °F 47% 30.10 in 10.0 mi North 11.5 mph 17.3 mph N/A   Mostly Cloudy
3:55 PM 53.6 °F - 32.0 °F 44% 30.10 in 10.0 mi NNW 13.8 mph - N/A   Mostly Cloudy
4:15 PM 53.6 °F - 32.0 °F 44% 30.09 in 10.0 mi NNW 16.1 mph 21.9 mph N/A   Scattered Clouds
4:35 PM 55.4 °F - 28.4 °F 36% 30.09 in 10.0 mi NW 9.2 mph 20.7 mph N/A   Scattered Clouds
4:55 PM 55.4 °F - 28.4 °F 36% 30.09 in 10.0 mi NNW 11.5 mph 19.6 mph N/A   Mostly Cloudy
5:15 PM 55.4 °F - 28.4 °F 36% 30.09 in 10.0 mi North 15.0 mph - N/A   Overcast
5:55 PM 53.6 °F - 28.4 °F 38% 30.09 in 10.0 mi North 16.1 mph - N/A   Mostly Cloudy
6:15 PM 53.6 °F - 30.2 °F 41% 30.09 in 10.0 mi North 12.7 mph - N/A   Partly Cloudy
6:35 PM 53.6 °F - 28.4 °F 38% 30.09 in 10.0 mi NNW 11.5 mph - N/A   Clear
6:55 PM 50.0 °F - 26.6 °F 40% 30.09 in 10.0 mi NNW 11.5 mph - N/A   Clear
7:15 PM 48.2 °F - 30.2 °F 50% 30.09 in 10.0 mi NNW 8.1 mph - N/A   Clear
7:35 PM 46.4 °F 42.4 °F 28.4 °F 50% 30.09 in 10.0 mi NNW 8.1 mph - N/A   Clear
7:55 PM 42.8 °F 38.6 °F 28.4 °F 57% 30.09 in 10.0 mi NNW 6.9 mph - N/A   Clear
8:15 PM 42.8 °F 38.6 °F 26.6 °F 53% 30.09 in 10.0 mi NW 6.9 mph - N/A   Clear
8:35 PM 42.8 °F 39.3 °F 26.6 °F 53% 30.09 in 10.0 mi NW 5.8 mph - N/A   Clear
8:55 PM 41.0 °F 36.4 °F 26.6 °F 57% 30.08 in 10.0 mi WNW 6.9 mph - N/A   Clear
9:15 PM 39.2 °F 34.2 °F 28.4 °F 65% 30.09 in 10.0 mi West 6.9 mph - N/A   Clear
9:35 PM 37.4 °F 33.8 °F 26.6 °F 65% 30.08 in 10.0 mi WNW 4.6 mph - N/A   Clear
9:55 PM 35.6 °F 29.2 °F 26.6 °F 70% 30.08 in 10.0 mi West 8.1 mph - N/A   Clear
10:15 PM 35.6 °F 29.9 °F 28.4 °F 75% 30.08 in 10.0 mi West 6.9 mph - N/A   Clear
10:35 PM 35.6 °F 30.7 °F 28.4 °F 75% 30.08 in 10.0 mi West 5.8 mph - N/A   Clear
10:55 PM 35.6 °F - 28.4 °F 75% 30.07 in 10.0 mi Calm Calm - N/A   Clear
11:15 PM 35.6 °F - 26.6 °F 70% 30.07 in 10.0 mi Calm Calm - N/A   Clear
11:35 PM 35.6 °F 32.8 °F 26.6 °F 70% 30.07 in 10.0 mi WSW 3.5 mph - N/A   Clear
11:55 PM 35.6 °F 31.7 °F 26.6 °F 70% 30.07 in 10.0 mi WSW 4.6 mph - N/A   Mostly Cloudy